Текущая погода в США : Cape Canaveral Air Force Station Skid Strip, Cocoa Beach 28.4667°ш. -80.5667°д. 3 м над ур. моря [FL]

ICAO Дата, время (UTC) Дата, время (местные) Ветер
(°,м/с) 
Видим.   Явления Облачность Т
(°С)
Тd
(°С)
f(%) Тe
(°С)
Тes
(°С)
Po
(гПа)
P
(гПа)
Тmin 6 ч. Tmax 6 ч. Тmin 24 ч. Tmax 24 ч. R1 R6 R24 SD
KXMR 16.04 11:56 16.04 07:56 030  16 км    ясно  +22.6  +10.1  45  +24  +25  1021.6  1020.9                 
KXMR 16.04 12:56 16.04 08:56 050  16 км    ясно  +23.6  +9.9  42  +25  +28  1021.6  1020.9                 
KXMR 16.04 13:56 16.04 09:56 050  16 км    ясно  +24.2  +10.5  42  +25  +31  1022.6  1021.9                 
KXMR 16.04 14:56 16.04 10:56 020  5
{8} 
16 км    ясно  +24.8  +11.0  42  +26  +31  1022.6  1021.9                 
KXMR 16.04 15:56 16.04 11:56 080  16 км    ясно  +25.1  +10.5  40  +26  +35  1022.0  1021.2                 
KXMR 16.04 16:56 16.04 12:56 050  16 км    ясно  +25.6  +10.6  39  +27  +37  1022.0  1021.2  +18.4  +25.8             
KXMR 16.04 17:56 16.04 13:56 050  16 км    ясно  +25.7  +10.7  39  +27  +34  1021.6  1020.9                 
KXMR 16.04 18:56 16.04 14:56 050  16 км    ясно  +25.4  +11.5  42  +27  +32  1021.0  1020.2                 
KXMR 16.04 19:56 16.04 15:56 050  16 км    ясно  +25.3  +11.4  42  +27  +35  1020.6  1019.8                 
KXMR 16.04 20:56 16.04 16:56 040  16 км    ясно  +24.7  +11.6  44  +26  +30  1020.6  1019.8                 
KXMR 16.04 21:56 16.04 17:56 060  16 км    ясно  +24.0  +12.9  50  +26  +28  1020.3  1019.5                 
KXMR 16.04 22:56 16.04 18:56 050  16 км    ясно  +22.0  +12.5  55  +25  +25  1020.3  1019.5  +22.0  +25.8             
KXMR 16.04 23:56 16.04 19:56 080  16 км    ясно  +21.3  +12.7  58  +24  +24  1020.6  1019.8                 
KXMR 17.04 00:56 16.04 20:56 060  16 км    ясно  +21.5  +12.9  58  +24  +24  1021.3  1020.5                 
KXMR 17.04 01:56 16.04 21:56 060  16 км    2/2 1200 м  +21.1  +12.8  59  +23  +23  1021.3  1020.5                 
KXMR 17.04 02:56 16.04 22:56 090  16 км    ясно  +20.9  +12.8  60  +24  +24  1020.9  1020.2                 
KXMR 17.04 03:56 16.04 23:56 100  16 км    ясно  +20.2  +12.7  62  +23  +23  1020.6  1019.8      +15.4  +25.8         
KXMR 17.04 04:56 17.04 00:56 100  16 км    ясно  +19.7  +13.2  66  +22  +22  1019.9  1019.2  +19.2  +21.9             
KXMR 17.04 05:56 17.04 01:56 тихо  16 км    ясно  +19.1  +12.8  67  +20  +20  1019.6  1018.8                 
KXMR 17.04 06:56 17.04 02:56 тихо  16 км    ясно  +16.7  +12.0  74  +17  +17  1019.3  1018.5                 
KXMR 17.04 07:56 17.04 03:56 070  16 км    8/8 1050 м  +16.2  +12.9  81  +17  +17  1018.9  1018.1                 
KXMR 17.04 08:56 17.04 04:56 120  16 км    5/5 1110 м  +19.3  +15.0  76  +22  +22  1018.9  1018.1                 
KXMR 17.04 09:56 17.04 05:56 тихо  16 км    ясно  +16.7  +13.4  81  +17  +17  1019.6  1018.8                 
KXMR 17.04 10:56 17.04 06:56 тихо  16 км    ясно  +18.6  +14.9  79  +19  +19  1020.3  1019.5  +15.9  +20.1             
KXMR 17.04 11:56 17.04 07:56 120  16 км    5/5 1440 м  +24.1  +14.2  54  +27  +27  1020.3  1019.5                 
KXMR 17.04 12:56 17.04 08:56 120  16 км    ясно  +25.7  +13.2  46  +28  +31  1020.6  1019.8                 
KXMR 17.04 13:56 17.04 09:56 090  16 км    ясно  +26.2  +13.0  44  +28  +33  1020.9  1020.2                 
KXMR 17.04 14:56 17.04 10:56 140  16 км    8/8 1170 м  +25.8  +13.9  48  +28  +30  1021.3  1020.5                 
KXMR 17.04 15:56 17.04 11:56 100  4
{8} 
16 км    ясно  +26.9  +13.6  44  +29  +38  1020.6  1019.8                 
KXMR 17.04 16:56 17.04 12:56 100  16 км    2/2 1110 м  +26.4  +13.5  45  +28  +37  1019.9  1019.2  +18.7  +27.2             
KXMR 17.04 17:56 17.04 13:56 120  6
{8} 
16 км    5/5 1140 м  +26.7  +14.1  46  +29  +31  1019.6  1018.8                 
KXMR 17.04 18:56 17.04 14:56 100  16 км    5/5 1080 м  +26.2  +14.0  47  +28  +33  1018.9  1018.1                 
KXMR 17.04 19:18 17.04 15:18 090  5
{9} 
16 км    8/8 1080 м  +26.0  +14.0  48  +28  +29  1018.2  1017.5                 
KXMR 17.04 19:56 17.04 15:56 120  16 км    ясно  +26.2  +14.3  48  +29  +33  1017.9  1017.1                 
KXMR 17.04 20:56 17.04 16:56 120  16 км    ясно  +25.3  +14.7  52  +28  +31  1017.9  1017.1                 
KXMR 17.04 21:56 17.04 17:56 130  16 км    ясно  +24.7  +15.0  55  +28  +30  1017.9  1017.1                 
KXMR 17.04 22:56 17.04 18:56 130  16 км    ясно  +22.8  +15.1  62  +27  +27  1017.9  1017.1  +22.8  +26.7             
KXMR 17.04 23:56 17.04 19:56 120  16 км    ясно  +21.6  +14.7  65  +25  +25  1018.2  1017.5                 
KXMR 18.04 00:56 17.04 20:56 120  16 км    ясно  +22.1  +15.0  64  +26  +26    1017.5                 
KXMR 18.04 01:56 17.04 21:56 140  16 км    ясно  +22.4  +14.5  61  +26  +26  1018.9  1018.1                 
KXMR 18.04 02:56 17.04 22:56 120  16 км    2/2 1080 м  +22.3  +14.4  61  +26  +26  1018.6  1017.8                 
KXMR 18.04 03:56 17.04 23:56 120  16 км    ясно  +21.2  +15.0  68  +24  +24  1018.2  1017.5      +15.9  +27.2         
KXMR 18.04 04:56 18.04 00:56 110  16 км    5/5 960 м  +21.0  +15.7  72  +25  +25  1017.6  1016.8  +21.0  +22.9             
KXMR 18.04 05:56 18.04 01:56 160  16 км    10/10 1020 м  +23.5  +15.5  61  +27  +27  1016.5  1015.8                 
KXMR 18.04 06:56 18.04 02:56 150  16 км    5/5 1470 м  +22.7  +14.8  61  +26  +26  1016.2  1015.4                 
KXMR 18.04 07:56 18.04 03:56 140  16 км    5/5 1500 м  +22.1  +15.0  64  +26  +26  1016.2  1015.4                 
KXMR 18.04 08:56 18.04 04:56 140  16 км    ясно  +20.2  +14.8  71  +23  +23  1016.2  1015.4                 
KXMR 18.04 09:56 18.04 05:56 140  16 км    2/2 1470 м  +21.9  +15.2  66  +25  +25  1015.9  1015.1                 
KXMR 18.04 10:56 18.04 06:56 150  16 км    ясно  +23.8  +15.3  59  +27  +27  1016.2  1015.4  +19.6  +23.8             
KXMR 18.04 11:56 18.04 07:56 140  16 км    ясно  +25.4  +14.5  51  +28  +28  1016.9  1016.1                 
KXMR 18.04 12:56 18.04 08:56 140  16 км    ясно  +26.1  +15.7  53  +29  +30  1016.5  1015.8                 
KXMR 18.04 13:46 18.04 09:46 140  16 км    8/8 840 м  +27.0  +17.0  54  +31  +31  1016.9  1016.1                 
KXMR 18.04 13:56 18.04 09:56 170  7
{11} 
16 км    8/8 840 м  +26.9  +16.8  54  +31  +31  1017.2  1016.5                 
KXMR 18.04 14:56 18.04 10:56 140  16 км    5/5 930 м  +27.0  +17.7  57  +31  +32  1017.2  1016.5                 
KXMR 18.04 16:56 18.04 12:56 130  16 км    ясно  +28.2  +19.9  61  +34  +37  1016.2  1015.4  +23.9  +28.2             
KXMR 18.04 20:56 18.04 16:56 150  8
{11} 
16 км    5/5 1470 м  +27.3  +20.8  68  +34  +35  1013.5  1012.7                 
KXMR 18.04 21:56 18.04 17:56 150  16 км    ясно  +26.4  +20.2  69  +33  +33  1012.8  1012.1                 
KXMR 18.04 22:56 18.04 18:56 150  16 км    ясно  +25.3  +20.5  75  +31  +32  1012.8  1012.1  +25.3  +28.6             
KXMR 18.04 23:56 18.04 19:56 160  16 км    ясно  +25.2  +20.8  77  +32  +32  1013.5  1012.7                 
KXMR 19.04 00:56 18.04 20:56 160  16 км    ясно  +25.1  +21.0  78  +32  +32  1014.5  1013.7                 
KXMR 19.04 01:56 18.04 21:56 160  16 км    8/0 2850 м
[средняя] 
+24.9  +21.0  79  +31  +31  1014.2  1013.4                 
KXMR 19.04 02:56 18.04 22:56 160  16 км    2/0 3300 м
[средняя] 
+24.8  +21.3  81  +31  +31  1014.2  1013.4                 
KXMR 19.04 03:56 18.04 23:56 160  16 км    ясно  +24.7  +21.4  82  +31  +31  1013.8  1013.1      +19.6  +28.6         
KXMR 19.04 04:56 19.04 00:56 160  16 км    ясно  +24.6  +21.5  83  +31  +31  1012.8  1012.1  +24.6  +25.3             
KXMR 19.04 05:56 19.04 01:56 170  16 км    ясно  +24.3  +20.8  81  +30  +30  1012.1  1011.4                 
KXMR 19.04 06:56 19.04 02:56 170  16 км    ясно  +24.5  +20.6  79  +30  +30  1011.8  1011.0                 
KXMR 19.04 07:56 19.04 03:56 180  16 км    2/2 540 м  +24.6  +20.9  80  +31  +31  1011.5  1010.7                 
KXMR 19.04 08:16 19.04 04:16 170  16 км    8/8 450 м  +25.0  +21.0  78  +31  +31  1011.5  1010.7                 
KXMR 19.04 08:41 19.04 04:41 180  16 км    5/5 420 м  +25.0  +21.0  78  +31  +31  1011.5  1010.7                 
KXMR 19.04 08:56 19.04 04:56 180  7
{11} 
16 км    2/2 420 м  +24.5  +20.4  78  +30  +30  1011.1  1010.4                 
KXMR 19.04 09:56 19.04 05:56 180  16 км    2/2 1080 м  +24.7  +19.5  73  +30  +30  1011.5  1010.7                 
KXMR 19.04 10:56 19.04 06:56 170  16 км    ясно  +25.1  +19.7  72  +31  +31  1011.5  1010.7  +24.2  +25.1             
ICAO Дата, время (UTC) Дата, время (местные) Ветер
(°,м/с) 
Видим.   Явления Облачность Т
(°С)
Тd
(°С)
f(%) Тe
(°С)
Тes
(°С)
Po
(гПа)
P
(гПа)
Тmin 6 ч. Tmax 6 ч. Тmin 24 ч. Tmax 24 ч. R1 R6 R24 SD

 

ПОГОДА В США по штатам




Выборка из архива погоды по пункту Cape Canaveral Air Force Station Skid Strip, Cocoa Beach.

Выберите нужную дату и нажмите кнопку "Найти!".
Будут отображены 100 сводок погоды по данному пункту, заканчивая указанной датой.

Данные о погоде в США получены из раскодированных сводок METAR и преобразованы в метрические единицы. Обновление таблицы - в течение 1-2 часов после момента отправки сводки метеостанцией. Срок хранения данных - 60 суток. Информация, представленная в этом разделе, является неофициальной и предназначена исключительно для личного использования в познавательных и исследовательских целях.





Текущая погода в США